Cancun, Mexico

9:59 PM on April 21, 2018 (GMT +0000)
Cancun International

Weather History for MMUN - September, 2012

Change the Weather History Date:

Friday, September 21, 2012

  Actual Average Record
Temperature  
Mean Temperature 80 °F -  
Max Temperature 84 °F 87 °F 95 °F (2002)
Min Temperature 75 °F 72 °F 68 °F (2007)
Cooling Degree Days 14    
Growing Degree Days 30 (Base 50)    
Moisture  
Dew Point 74 °F    
Average Humidity 84    
Maximum Humidity 94    
Minimum Humidity 70    
Precipitation  
Precipitation 0.00 in - - ()
Sea Level Pressure  
Sea Level Pressure 29.89 in    
Wind  
Wind Speed 5 mph ()    
Max Wind Speed 10 mph    
Max Gust Speed -    
Visibility 6.7 miles    
Events Rain    
Averages and records for this station are not official NWS values.
T = Trace of Precipitation, MM = Missing Value Source: Averaged Metar Reports

Daily Weather History Graph

Daily Weather History Graph

Search for Another Location

Airport or City:

Astronomy

Sep. 21, 2012 Rise Set
Actual Time 6:36 AM CDT 6:44 PM CDT
Civil Twilight 6:14 AM CDT 7:06 PM CDT
Nautical Twilight 5:48 AM CDT 7:32 PM CDT
Astronomical Twilight 5:22 AM CDT 7:57 PM CDT
Moon 12:12 PM CDT 11:29 PM CDT
Length of Visible Light 12h 52m
Length of Day
12h 08m
Waxing Crescent, 37% of the Moon is Illuminated
Sep 21
Waxing Crescent
Sep 22
First Quarter
Sep 29
Full
Oct 8
Last Quarter
Oct 15
New

Hourly Weather History & Observations

Time (CDT) Temp. Heat Index Dew Point Humidity Pressure Visibility Wind Dir Wind Speed Gust Speed Precip Events Conditions
12:40 AM 80.6 °F 85.4 °F 73.4 °F 79% 29.92 in 7.0 mi ESE 6.9 mph - N/A   Scattered Clouds
1:40 AM 80.6 °F 85.4 °F 73.4 °F 79% 29.90 in 7.0 mi ESE 4.6 mph - N/A   Scattered Clouds
2:46 AM 78.8 °F - 75.2 °F 89% 29.88 in 7.0 mi ESE 4.6 mph - N/A   Scattered Clouds
3:43 AM 75.2 °F - 73.4 °F 94% 29.87 in 7.0 mi NNW 2.3 mph - N/A   Scattered Clouds
4:41 AM 75.2 °F - 73.4 °F 94% 29.88 in 7.0 mi Calm Calm - N/A   Scattered Clouds
5:40 AM 75.2 °F - 73.4 °F 94% 29.80 in 6.0 mi East 2.3 mph - N/A Rain Light Rain
6:40 AM 75.2 °F - 73.4 °F 94% 29.89 in 7.0 mi North 3.5 mph - N/A   Mostly Cloudy
7:44 AM 77.0 °F - 75.2 °F 94% 29.92 in 7.0 mi NW 5.8 mph - N/A   Mostly Cloudy
8:41 AM 77.0 °F - 73.4 °F 89% 29.93 in 6.0 mi NE 5.8 mph - N/A   Mostly Cloudy
9:44 AM 78.8 °F - 73.4 °F 83% 29.93 in 6.0 mi East 3.5 mph - N/A   Mostly Cloudy
10:41 AM 77.0 °F - 73.4 °F 89% 29.96 in 5.0 mi East 10.4 mph - N/A   Overcast
11:42 AM 78.8 °F - 75.2 °F 89% 29.94 in 6.0 mi NE 6.9 mph - N/A   Mostly Cloudy
12:42 PM 82.4 °F 88.2 °F 73.4 °F 74% 29.91 in 6.0 mi ESE 10.4 mph - N/A   Mostly Cloudy
1:41 PM 82.4 °F 88.2 °F 73.4 °F 74% 29.88 in 7.0 mi ENE 8.1 mph - N/A   Mostly Cloudy
2:40 PM 84.2 °F 90.9 °F 73.4 °F 70% 29.86 in 7.0 mi SE 10.4 mph - N/A   Mostly Cloudy
3:42 PM 84.2 °F 90.9 °F 73.4 °F 70% 29.86 in 7.0 mi SSW 9.2 mph - N/A   Mostly Cloudy
4:52 PM 82.4 °F 88.2 °F 73.4 °F 74% 29.84 in 7.0 mi SSE 8.1 mph - N/A   Mostly Cloudy
5:48 PM 80.6 °F 86.2 °F 75.2 °F 84% 29.85 in 7.0 mi East 4.6 mph - N/A   Mostly Cloudy
6:47 PM 80.6 °F 85.4 °F 73.4 °F 79% 29.86 in 7.0 mi ENE 4.6 mph - N/A   Mostly Cloudy
7:42 PM 78.8 °F - 73.4 °F 83% 29.89 in 7.0 mi NE 3.5 mph - N/A   Mostly Cloudy
8:40 PM 78.8 °F - 73.4 °F 83% 29.91 in 7.0 mi Calm Calm - N/A   Mostly Cloudy
9:48 PM 78.8 °F - 73.4 °F 83% 29.88 in 7.0 mi SE 5.8 mph - N/A   Mostly Cloudy
10:47 PM 77.0 °F - 73.4 °F 89% 29.91 in 7.0 mi NE 5.8 mph - N/A   Mostly Cloudy
11:46 PM 75.2 °F - 73.4 °F 94% 29.91 in 7.0 mi NE 5.8 mph - N/A   Mostly Cloudy